Location: Gälforsberget
(66.6500°N, 22.4167°E)
Time: 10:05:01
(UTC+00:00)

Okean 1-7 Rocket - Pass Details

Date: 11 April 2026
Orbit: 610 x 642 km, 82.5° (Epoch: 19 May)

Event Time Altitude Azimuth Distance (km) Brightness Sun altitude
Rises 23:33:40 0° 340° (NNW) 2,902 8.0 -13.9°
Reaches altitude 10° 23:35:55 10° 343° (NNW) 1,990 7.0 -13.8°
Maximum altitude 23:40:20 74° 69° (ENE) 647 3.7 -13.7°
Enters shadow 23:44:22 12° 154° (SSE) 1,843 5.6 -13.6°
